DateTimeUTC,F1_A11,F1_S11,BsB_S11,BsG_S11,BsR_S11,BbsB_S11,BbsG_S11,BbsR_S11,BaB_A11,BaG_A11,BaR_A11,Tu_S11,T_S11,Uu_S11,U_S11,P_S11,T1_A11
2021-04-13T08:00:00Z,00000200,21000000,,,,,,,-000.35,0000.04,-000.26,17.6,24.8,00.9,00.6,0661.7,31.1
2021-04-13T08:01:00Z,00000200,21000000,,,,,,,0000.18,-000.16,-000.08,17.6,24.8,00.9,00.6,0661.7,31.1
2021-04-13T08:02:00Z,00000200,21000000,,,,,,,0000.31,0000.29,0000.22,17.6,24.8,00.9,00.6,0661.7,31.1
2021-04-13T08:03:00Z,00000200,61000000,,,,,,,0000.23,0000.06,0000.35,17.6,24.8,00.9,00.6,0661.7,31.1
2021-04-13T08:04:00Z,00000200,41000000,0000.35,0000.13,0000.28,-000.26,-000.22,-000.02,-000.61,0000.13,-000.21,17.7,24.7,01.0,00.7,0662.5,31.1
2021-04-13T08:05:00Z,00000200,01000000,0000.26,0000.06,0000.23,0000.24,-000.06,0000.23,0000.33,-000.03,0000.05,17.8,24.6,01.1,00.7,0662.5,31.1
2021-04-13T08:06:00Z,00000200,01000000,0000.18,0000.08,0000.26,-000.24,-000.20,0000.06,0000.24,0000.04,0000.04,17.8,24.6,01.1,00.7,0662.5,31.1
2021-04-13T08:07:00Z,00000200,01000000,0000.17,-000.08,0000.35,-000.04,0000.02,0000.21,-000.15,-000.33,0000.23,17.8,24.6,01.0,00.7,0662.5,31.1
2021-04-13T08:08:00Z,00000200,01000000,0000.09,0000.16,0000.16,-000.14,-000.08,0000.12,0000.30,0000.18,-000.10,17.8,24.6,00.9,00.6,0662.5,31.1
2021-04-13T08:09:00Z,00000200,01000000,0000.16,-000.09,0000.17,-000.49,0000.15,0000.15,-000.71,-000.27,-000.06,17.8,24.6,01.0,00.7,0662.4,31.1
2021-04-13T08:10:00Z,00000200,01000000,0000.16,-000.11,0000.10,0000.07,0000.22,0000.22,0000.11,-000.15,0000.07,17.8,24.6,01.0,00.7,0662.4,31.1
2021-04-13T08:11:00Z,00000200,01000000,-000.09,-000.21,-000.04,-000.19,0000.15,0000.19,0000.41,0000.15,-000.09,17.8,24.6,01.0,00.7,0662.4,31.0
2021-04-13T08:12:00Z,00000200,01000000,-000.26,-000.17,-000.07,0000.13,-000.25,0000.03,-000.43,-000.25,0000.08,17.8,24.6,01.0,00.7,0662.4,31.1
2021-04-13T08:13:00Z,00000200,01000000,-000.11,-000.04,0000.10,-000.13,-000.06,0000.31,0000.39,0000.70,-000.11,17.8,24.6,01.0,00.7,0662.4,31.1
2021-04-13T08:14:00Z,00000200,01000000,-000.05,0000.28,-000.03,0000.28,-000.02,0000.17,-000.15,0000.09,0000.06,17.8,24.6,01.0,00.7,0662.3,31.1
2021-04-13T08:15:00Z,00000200,01000000,-000.25,0000.10,0000.14,0000.27,-000.11,0000.32,0000.14,-000.39,0000.63,17.8,24.6,01.1,00.7,0662.3,31.1
2021-04-13T08:16:00Z,00000200,01000000,0000.20,-000.14,0000.36,0000.25,0000.03,0000.16,0000.60,0000.70,-000.39,17.8,24.6,01.1,00.7,0662.3,31.1
2021-04-13T08:17:00Z,00000200,01000000,0000.15,0000.11,0000.01,-000.16,-000.15,0000.05,-000.26,-000.10,-000.18,17.8,24.6,01.1,00.7,0662.3,31.1
2021-04-13T08:18:00Z,00000200,01000000,-001.06,0000.15,0000.09,-000.17,0000.02,0000.18,-000.30,-000.25,0000.29,17.8,24.6,01.2,00.8,0662.3,31.1
2021-04-13T08:19:00Z,00000200,01000000,-000.20,-000.01,0000.10,0000.28,0000.18,0000.12,0000.28,-000.20,-000.08,17.8,24.6,01.1,00.7,0662.3,31.1
2021-04-13T08:20:00Z,00000200,01000000,-000.62,0000.39,-000.01,-000.33,-000.24,0000.32,0000.37,0000.39,0000.49,17.8,24.6,01.2,00.8,0662.3,31.1
2021-04-13T08:21:00Z,00000200,01000000,0000.05,0000.02,-000.00,0000.12,-000.17,-000.15,-000.00,0000.21,0000.05,17.8,24.6,01.1,00.7,0662.3,31.1
2021-04-13T08:22:00Z,00000200,01000000,-000.00,-000.10,0000.05,-000.20,0000.15,0000.38,-000.23,0000.28,0000.04,17.8,24.5,01.1,00.8,0662.4,31.1
2021-04-13T08:23:00Z,00000200,01000000,-000.26,-000.07,-000.10,0000.03,0000.10,0000.04,0000.78,0000.53,0000.26,17.8,24.6,01.2,00.8,0662.4,31.1
2021-04-13T08:24:00Z,00000200,01000000,-000.51,0000.36,0000.12,-000.21,0000.20,0000.35,0000.13,-000.23,-000.04,17.9,24.6,01.2,00.8,0662.3,31.1
2021-04-13T08:25:00Z,00000200,01000000,0000.27,0000.20,-000.02,0000.36,0000.01,0000.04,0000.58,0000.43,0000.41,17.8,24.5,01.3,00.9,0662.3,31.1
2021-04-13T08:26:00Z,00000200,01000000,0000.21,-000.08,0000.33,-000.23,0000.16,0000.07,-000.04,-000.04,0000.31,17.8,24.6,01.3,00.8,0662.3,31.1
2021-04-13T08:27:00Z,00000200,01000000,0000.19,0000.12,0000.19,0000.06,-000.06,0000.01,-000.11,0000.24,-000.13,17.8,24.6,01.4,00.9,0662.3,31.1
2021-04-13T08:28:00Z,00000200,01000000,0000.77,-000.04,0000.19,0000.20,0000.28,0000.33,0000.12,-000.18,-000.21,17.8,24.6,01.3,00.9,0662.3,31.1
2021-04-13T08:29:00Z,00000200,01000000,-000.00,-000.02,0000.25,-000.30,0000.06,0000.11,-000.19,0000.29,0000.16,17.8,24.6,01.3,00.9,0662.2,31.1
2021-04-13T08:30:00Z,00000200,01000000,0000.41,0000.39,0000.11,0000.17,0000.04,0000.06,0000.68,0000.63,0000.33,17.9,24.6,01.4,00.9,0662.2,31.1
2021-04-13T08:31:00Z,00000200,01000000,-000.03,0000.06,0000.19,-000.07,-000.08,-000.10,0000.25,-000.42,-000.23,17.9,24.6,01.4,00.9,0662.2,31.1
2021-04-13T08:32:00Z,00000200,01000000,-000.60,-000.11,0000.02,0000.07,-000.20,0000.10,-000.11,0000.25,-000.12,17.9,24.6,01.2,00.8,0662.2,31.1
2021-04-13T08:33:00Z,00000200,01000000,-000.08,-000.12,0000.12,-000.04,-000.10,0000.26,0000.42,0000.23,0000.73,17.9,24.6,01.4,00.9,0662.1,31.1
2021-04-13T08:34:00Z,00000200,01000000,-000.26,0000.09,0000.15,-000.29,-000.14,0000.30,0000.06,0000.34,-000.19,17.9,24.5,01.4,01.0,0662.2,31.1
2021-04-13T08:35:00Z,00000200,01000000,-000.09,0000.37,0000.15,-000.38,-000.01,0000.08,0000.02,-000.34,0000.13,17.8,24.6,01.4,00.9,0662.2,31.1
2021-04-13T08:36:00Z,00000200,01000000,0000.56,0000.04,0000.06,-000.26,0000.06,0000.04,0000.06,-000.16,0000.13,17.9,24.6,01.4,00.9,0662.2,31.1
2021-04-13T08:37:00Z,00000200,01000000,0000.28,0000.12,0000.20,0000.20,0000.02,0000.19,-000.20,-000.00,-000.48,17.9,24.5,01.4,00.9,0662.2,31.1
2021-04-13T08:38:00Z,00000200,01000000,-000.04,0000.43,0000.15,0000.18,0000.10,0000.27,0000.49,0000.59,0000.75,17.9,24.6,01.4,00.9,0662.1,31.1
2021-04-13T08:39:00Z,00000200,01000000,0000.35,0000.16,0000.22,0000.22,0000.04,0000.10,0000.13,0000.64,-000.07,17.9,24.5,01.5,01.0,0662.2,31.1
2021-04-13T08:40:00Z,00000200,01000000,0000.00,0000.04,0000.16,-000.22,0000.00,0000.29,0000.41,0000.03,0000.41,17.9,24.5,01.5,01.0,0662.1,31.1
2021-04-13T08:41:00Z,00000200,01000000,-000.01,0000.16,0000.14,0000.11,-000.13,0000.44,0000.31,0000.38,0000.09,17.9,24.6,01.5,01.0,0662.0,31.1
2021-04-13T08:42:00Z,00000200,01000000,0000.11,0000.12,0000.26,-000.30,-000.06,0000.04,-000.23,-000.28,-000.02,17.9,24.6,01.6,01.0,0662.1,31.1
2021-04-13T08:43:00Z,00000200,01000000,0000.39,0000.11,0000.13,0000.28,0000.03,0000.20,-000.01,-000.07,0000.17,17.9,24.6,01.5,01.0,0662.1,31.1
2021-04-13T08:44:00Z,00000200,01000000,0000.20,0000.38,0000.17,0000.14,-000.17,-000.13,-000.19,-000.36,-000.29,17.9,24.6,01.5,01.0,0662.1,31.1
2021-04-13T08:45:00Z,00000200,01000000,0000.51,0000.44,0000.01,0000.33,-000.19,0000.11,-000.07,0000.16,-000.26,17.9,24.6,01.5,01.0,0662.1,31.1
2021-04-13T08:46:00Z,00000200,01000000,0000.33,0000.09,0000.30,-000.16,-000.17,-000.21,-000.27,-000.44,-000.02,17.9,24.6,01.4,00.9,0662.1,31.1
2021-04-13T08:47:00Z,00000200,01000000,-000.15,0000.11,0000.20,0000.07,-000.06,0000.11,0000.11,0000.33,0000.03,17.9,24.5,01.4,00.9,0662.1,31.1
2021-04-13T08:48:00Z,00000200,01000000,-000.17,0000.25,-000.01,-000.08,-000.08,-000.05,0000.10,-000.08,-000.25,17.9,24.5,01.4,00.9,0662.1,31.0
2021-04-13T08:49:00Z,00000200,01000000,0000.76,0000.26,0000.14,0000.72,0000.21,0000.09,-000.01,0000.00,0000.12,17.9,24.6,01.4,01.0,0662.1,31.1
2021-04-13T08:50:00Z,00000200,01000000,-000.35,0000.13,-000.19,0000.08,-000.19,-000.02,0000.04,0000.57,0000.45,17.9,24.6,01.4,00.9,0662.0,31.1
2021-04-13T08:51:00Z,00000200,01000000,0000.27,0000.30,0000.06,0000.27,-000.12,0000.09,0000.43,0000.10,0000.02,17.9,24.6,01.4,00.9,0662.1,31.1
2021-04-13T08:52:00Z,00000200,01000000,0000.57,0000.15,0000.16,0000.19,0000.22,-000.10,-000.20,-000.86,0000.12,17.9,24.6,01.4,00.9,0662.0,31.1
2021-04-13T08:53:00Z,00000200,01000000,-000.14,0000.07,0000.17,0000.40,0000.26,0000.34,0000.21,0000.56,-000.36,17.9,24.6,01.4,00.9,0662.0,31.1
2021-04-13T08:54:00Z,00000200,01000000,0000.55,0000.33,0000.35,0000.25,-000.30,0000.25,0000.04,0000.12,0000.30,17.9,24.6,01.5,01.0,0662.1,31.1
2021-04-13T08:55:00Z,00000200,01000000,0000.06,0000.12,-000.00,0000.34,0000.03,0000.24,-000.39,0000.00,-000.22,17.9,24.6,01.4,00.9,0662.1,31.1
2021-04-13T08:56:00Z,00000200,01000000,-000.59,0000.11,-000.07,-000.11,0000.05,0000.42,0000.43,0000.31,0000.50,17.9,24.6,01.3,00.9,0662.0,31.1
2021-04-13T08:57:00Z,00000200,41000000,,,,,,,-000.24,-000.47,-000.29,17.9,24.6,01.2,00.8,0662.0,31.1
2021-04-13T08:58:00Z,00000200,61000000,,,,,,,-000.24,-000.32,-000.02,17.7,24.7,01.2,00.8,0661.1,31.1
2021-04-13T08:59:00Z,00000200,21000000,,,,,,,-000.04,0000.50,0000.03,17.7,24.8,01.2,00.8,0661.1,31.1
